Tracking 19717 objects as of 25-Jun-2019
HD Live streaming from Space Station
objects crossing your sky now

INSAT 2A

Track INSAT 2A now!
INSAT 2A is classified as:


NORAD ID: 22027
Int'l Code: 1992-041A
Perigee: 35,780.4 km
Apogee: 35,827.4 km
Inclination: 14.8 °
Period: 1,436.6 minutes
Semi major axis: 42174 km
RCS: 1.9952 m2 (large)
Launch date: July 9, 1992
Source: India (IND)
Launch site: FRENCH GUIANA (FRGUI)
aabbcc
Your satellite tracking list
Your tracking list is empty




NASA's NSSDC Master Catalog

Two Line Element Set (TLE):
1 22027U 92041A   19175.36249567 -.00000068  00000-0  00000+0 0  9998
2 22027  14.8087  12.8436 0005571 264.7936 293.7690  1.00235523 98488
Source of the keplerian elements: AFSPC